Weather History for KMHE - March, 2013

Change the Weather History Date:

Friday, March 29, 2013

  Actual Average Record
Temperature  
Mean Temperature 50 °F 39 °F  
Max Temperature 70 °F 51 °F 85 °F (1943)
Min Temperature 29 °F 28 °F 1 °F (1969)
Degree Days  
Heating Degree Days 15 26  
Month to date heating degree days 1087 908  
Since 1 July heating degree days 6552 6430  
Cooling Degree Days 0 0  
Month to date cooling degree days 0 0  
Year to date cooling degree days 0 0  
Moisture  
Dew Point 35 °F    
Average Humidity 62    
Maximum Humidity 92    
Minimum Humidity 31    
Precipitation  
Precipitation T in 0.06 in 1.33 in (1977)
Month to date precipitation 0.80 0.94  
Year to date precipitation 2.37 1.50  
Snow  
Snow 0.00 in - 8.00 in (1924)
Month to date snowfall 3.4  
Since 1 July snowfall 31.3  
Snow Depth 0.00 in    
Sea Level Pressure  
Sea Level Pressure 30.09 in    
Wind  
Wind Speed 11 mph (SSE)    
Max Wind Speed 25 mph    
Max Gust Speed 35 mph    
Visibility 10 miles    
Events Rain    
T = Trace of Precipitation, MM = Missing Value Source: NWS Daily Summary

Daily Weather History Graph

Daily Weather History Graph

Search for Another Location

Airport or City:

Trip Planner

Search our weather history database for the weather conditions in past years. The results will help you decide how hot, cold, wet, or windy it might be!

Date:

Astronomy

Mar. 29, 2013 Rise Set
Actual Time 7:18 AM CDT 7:55 PM CDT
Civil Twilight 6:49 AM CDT 8:24 PM CDT
Nautical Twilight 6:15 AM CDT 8:59 PM CDT
Astronomical Twilight 5:40 AM CDT 9:34 PM CDT
Moon 11:04 PM CDT (3/29) 8:22 AM CDT (3/29)
Length of Visible Light 13h 35m
Length of Day
12h 37m
Waning Gibbous, 93% of the Moon is Illuminated
Mar 29
Waning Gibbous
Apr 2
Last Quarter
Apr 10
New
Apr 18
First Quarter
Apr 25
Full

Hourly Weather History & Observations

Time (CDT) Temp. Windchill Dew Point Humidity Pressure Visibility Wind Dir Wind Speed Gust Speed Precip Events Conditions
12:53 AM 36.0 °F 31.1 °F 30.0 °F 79% 30.20 in 10.0 mi SE 5.8 mph - N/A   Unknown
1:53 AM 34.0 °F 28.8 °F 28.0 °F 79% 30.20 in 10.0 mi SE 5.8 mph - N/A   Clear
2:53 AM 33.1 °F 27.7 °F 28.9 °F 85% 30.19 in 10.0 mi SSE 5.8 mph - N/A   Unknown
3:53 AM 32.0 °F 26.4 °F 28.0 °F 85% 30.19 in 10.0 mi SSE 5.8 mph - N/A   Clear
4:53 AM 30.9 °F 23.5 °F 28.0 °F 89% 30.17 in 9.0 mi SE 8.1 mph - N/A   Clear
5:53 AM 30.0 °F 24.1 °F 27.0 °F 88% 30.18 in 7.0 mi SE 5.8 mph - N/A   Clear
6:53 AM 30.9 °F 24.3 °F 28.0 °F 89% 30.17 in 7.0 mi SSE 6.9 mph - N/A   Clear
7:53 AM 32.0 °F 24.2 °F 28.0 °F 85% 30.18 in 6.0 mi SE 9.2 mph - N/A   Clear
8:53 AM 36.0 °F 29.6 °F 30.9 °F 82% 30.18 in 8.0 mi SE 8.1 mph - N/A   Clear
9:53 AM 43.0 °F 37.2 °F 34.0 °F 71% 30.17 in 10.0 mi SSE 10.4 mph - N/A   Clear
10:53 AM 48.9 °F - 34.0 °F 56% 30.15 in 10.0 mi South 9.2 mph - N/A   Clear
11:53 AM 55.9 °F - 35.1 °F 45% 30.13 in 10.0 mi SSE 10.4 mph - N/A   Clear
12:53 PM 61.0 °F - 36.0 °F 39% 30.10 in 10.0 mi South 9.2 mph - N/A   Clear
1:53 PM 66.0 °F - 36.0 °F 33% 30.07 in 10.0 mi South 11.5 mph - N/A   Clear
2:53 PM 68.0 °F - 37.9 °F 33% 30.04 in 10.0 mi SSE 16.1 mph - N/A   Clear
3:53 PM 69.1 °F - 37.0 °F 31% 30.01 in 10.0 mi South 12.7 mph - N/A   Clear
4:53 PM 70.0 °F - 37.0 °F 30% 29.99 in 10.0 mi South 15.0 mph - N/A   Clear
5:53 PM 69.1 °F - 37.9 °F 32% 29.97 in 10.0 mi South 15.0 mph - N/A   Clear
6:53 PM 64.9 °F - 39.9 °F 40% 29.96 in 10.0 mi SSE 13.8 mph - N/A   Clear
7:53 PM 63.0 °F - 42.1 °F 46% 29.96 in 10.0 mi South 17.3 mph 23.0 mph N/A   Partly Cloudy
8:53 PM 53.1 °F - 46.0 °F 77% 29.98 in 10.0 mi ESE 6.9 mph - 0.00 in Rain Light Rain
9:53 PM 55.9 °F - 44.1 °F 64% 29.98 in 10.0 mi South 11.5 mph - 0.00 in   Clear
10:53 PM 55.0 °F - 44.1 °F 67% 29.94 in 10.0 mi South 18.4 mph 24.2 mph 0.00 in   Scattered Clouds
11:53 PM 55.9 °F - 44.1 °F 64% 29.95 in 10.0 mi South 19.6 mph 29.9 mph N/A   Clear